Wind_Speed
77 79 81 85 86 87 88 85 84 86 88 87 82 87 108 108 102 100 104 96 89 84 79 75 72 74 72 67 65 65 65 65 64 60 56 55 55 55 54 55 54 55 55 54
70 74 79 82 85 88 87 85 85 88 92 88 87 83 105 106 98 99 102 104 95 89 87 83 76 78 76 73 69 68 67 66 65 65 63 62 62 61 61 61 60 60 59 58
63 71 79 80 82 85 88 88 87 87 93 89 89 82 93 105 106 104 103 103 103 99 92 89 84 82 79 76 76 78 73 67 67 66 66 65 64 64 63 62 62 63 61 61
61 66 71 76 81 84 87 90 90 91 91 88 92 84 81 98 107 108 105 103 99 101 101 98 92 90 82 79 82 83 78 73 69 66 67 68 68 68 67 67 66 67 67 66
61 69 70 72 78 86 82 93 93 92 91 92 86 83 76 85 108 111 105 104 104 101 100 98 94 95 88 90 86 86 83 78 75 72 71 73 72 71 70 70 70 71 71 71
51 63 71 74 78 81 86 90 93 95 95 91 86 85 76 78 93 109 112 109 107 107 105 101 100 102 100 95 90 88 86 85 82 79 76 76 78 76 75 76 77 76 76 75
42 56 67 74 79 84 87 88 92 95 95 85 90 95 79 75 81 101 114 117 114 113 111 109 106 100 101 100 97 96 93 90 90 85 82 82 83 81 79 80 81 80 80 80
45 50 61 69 76 82 88 92 92 97 94 90 97 91 82 83 84 89 112 119 119 116 114 114 107 107 102 103 100 101 99 99 93 87 86 83 85 85 84 84 83 82 81 80
52 56 60 62 67 77 87 92 95 98 97 98 97 87 87 90 86 82 88 114 122 122 118 116 113 109 107 102 94 93 91 90 93 92 90 89 87 88 87 87 87 86 85 84
61 62 67 68 65 71 77 88 93 97 98 101 100 94 91 94 93 88 85 91 114 122 123 120 116 113 109 104 101 102 98 94 96 96 96 95 93 91 89 89 90 89 89 89
73 71 72 76 77 70 74 77 85 94 99 100 100 101 99 96 96 96 92 88 90 109 121 123 122 115 113 108 107 104 104 105 104 99 98 100 99 96 93 93 95 94 93 93
75 78 79 82 83 82 81 79 78 86 96 101 101 104 103 101 99 99 99 94 87 86 99 120 122 121 118 114 112 110 111 109 111 111 112 110 104 100 98 99 98 96 97 97
66 75 83 86 86 87 87 86 81 81 88 98 103 104 102 103 102 103 104 102 96 91 87 96 115 119 120 119 116 117 113 113 114 113 114 114 109 106 104 104 103 100 99 98
56 65 76 85 91 93 93 92 91 87 86 92 96 102 106 105 105 106 107 105 101 97 92 88 96 111 118 118 118 119 120 117 113 112 113 116 111 112 111 109 108 105 102 98
54 58 62 71 80 92 101 102 100 97 94 93 92 99 105 108 109 108 108 106 106 103 99 93 88 89 101 112 120 119 118 120 121 119 121 120 118 115 115 114 113 109 106 105
53 56 58 60 69 77 87 102 106 105 102 95 95 97 102 107 108 110 109 108 108 107 102 98 96 90 85 88 100 114 121 119 118 119 120 121 120 118 119 119 116 115 111 110
53 57 56 56 62 68 73 91 100 103 106 101 98 97 103 102 105 109 109 109 111 109 105 104 100 97 91 85 84 91 101 113 119 120 119 119 119 120 121 119 117 117 116 112
49 52 54 57 58 60 68 78 92 100 103 103 99 98 102 103 102 105 108 110 108 110 109 105 103 102 97 91 86 82 83 89 99 111 117 118 118 119 119 119 118 119 114 112
46 48 49 53 64 62 66 74 85 94 91 95 103 105 101 103 105 100 104 110 111 110 109 107 105 104 102 100 95 89 86 83 82 86 94 104 111 114 117 118 121 114 112 111
41 42 43 51 54 55 66 72 80 85 72 94 103 104 102 100 102 95 104 108 111 110 111 109 108 106 100 104 99 95 92 91 87 85 84 86 89 94 99 106 105 103 104 103
33 38 40 42 44 51 64 75 72 74 72 81 95 100 100 98 93 104 103 102 106 110 110 109 109 106 104 103 101 101 96 95 92 90 89 88 87 88 89 94 90 90 89 89
25 31 33 38 39 46 52 59 63 66 68 70 87 92 93 91 90 97 99 100 101 104 106 109 109 109 109 104 102 102 99 95 96 100 96 95 92 92 94 89 85 87 85 85
20 23 28 31 31 39 46 47 49 55 60 64 70 80 84 85 88 90 93 98 97 97 101 105 107 110 112 107 101 101 94 101 100 99 97 101 96 100 97 97 94 92 91 91
17 17 21 24 26 33 35 38 43 44 46 52 58 65 70 80 83 82 84 89 94 93 95 99 103 107 109 108 106 105 104 95 100 103 103 101 96 95 103 103 94 90 91 92
18 19 21 23 23 24 25 28 32 36 39 37 44 55 60 67 73 76 79 79 80 87 94 100 100 101 104 106 104 104 104 101 102 98 99 102 99 100 105 99 94 90 92 93
16 16 18 19 19 20 21 21 24 27 31 33 35 46 53 58 64 66 69 73 74 76 82 92 99 100 100 102 100 101 100 99 97 94 99 98 101 100 98 95 90 87 91 93
Wind_Direction
225 226 227 228 228 230 230 229 230 232 234 234 234 231 228 231 226 229 226 220 224 227 231 235 237 244 244 242 244 246 249 249 251 251 251 252 253 256 259 262 265 268 270 273
226 224 227 227 228 229 231 230 231 233 235 234 235 234 228 230 229 229 233 225 221 228 231 230 232 240 244 243 244 246 246 247 250 253 252 253 254 257 259 262 266 268 271 275
227 227 226 227 228 229 230 231 231 232 235 234 236 234 235 229 229 229 232 231 233 227 231 234 233 235 240 244 245 246 247 246 247 251 255 257 258 259 261 264 267 270 272 274
229 232 232 229 228 229 230 231 231 232 235 234 234 233 237 232 230 229 232 235 237 239 239 235 238 237 239 243 246 248 247 248 248 249 252 255 257 258 261 263 265 268 271 273
230 232 230 232 230 230 228 231 231 232 233 234 236 233 236 233 229 228 228 233 236 237 240 243 239 233 237 239 240 245 247 247 247 249 252 254 257 260 262 263 265 268 270 271
245 236 232 229 230 231 230 231 232 232 234 233 235 234 231 236 231 228 227 227 231 236 238 237 240 242 241 239 242 248 248 250 251 249 248 251 254 256 258 261 263 266 268 270
251 246 239 233 231 230 231 233 233 232 234 232 235 235 225 235 235 229 227 227 227 230 236 239 240 242 246 243 246 250 250 251 252 251 252 253 255 258 259 261 263 265 267 270
261 253 247 242 235 235 233 232 232 233 233 232 233 234 229 229 234 233 229 228 227 228 232 238 240 244 243 247 250 252 250 249 252 253 253 254 256 258 260 262 265 267 269 272
251 253 251 245 240 240 236 235 234 233 233 230 232 232 231 230 233 235 236 231 229 229 229 233 236 239 246 246 247 251 254 256 257 255 255 255 257 260 261 263 266 269 272 275
247 244 250 250 243 239 240 240 236 235 234 233 232 229 229 231 231 233 235 236 232 230 230 231 233 236 238 244 244 243 246 248 251 257 260 259 257 259 262 264 267 269 271 272
255 244 244 249 245 243 240 238 241 238 234 235 234 231 229 229 231 231 233 236 237 234 232 233 234 232 234 236 240 246 247 248 250 253 256 261 262 261 262 263 265 268 271 274
253 247 240 241 246 243 241 240 238 240 238 234 234 235 232 229 230 231 232 233 235 236 235 234 234 236 234 235 236 242 248 249 250 253 256 257 258 261 263 266 268 269 271 272
252 245 240 239 241 244 243 241 240 241 239 238 233 233 234 232 231 233 233 233 234 234 234 234 234 235 236 236 235 236 241 248 251 254 257 260 263 265 266 267 268 269 270 272
252 248 242 239 239 240 242 244 242 241 242 240 238 233 231 232 231 231 234 234 234 236 235 236 236 235 236 236 237 237 240 243 247 251 253 258 260 261 263 265 266 268 270 270
255 250 245 242 241 238 240 241 243 243 240 238 238 236 233 230 231 231 232 234 234 235 236 236 237 238 237 238 238 238 240 242 245 248 251 254 256 258 260 262 263 265 266 269
258 254 247 242 240 239 237 238 241 244 241 237 235 237 236 232 230 231 230 233 235 234 234 236 237 237 238 239 240 242 241 241 244 246 249 253 257 258 258 260 262 264 265 268
257 254 252 246 239 238 238 239 239 240 241 240 235 232 237 235 233 230 231 232 235 235 235 236 237 238 236 238 241 242 243 244 245 247 248 250 251 254 257 260 262 264 266 268
257 255 252 250 247 241 236 237 240 239 239 242 241 237 233 236 234 232 230 230 233 236 236 236 237 239 239 238 239 241 243 244 245 246 248 250 252 254 256 259 262 263 266 269
260 254 250 247 247 244 244 239 240 243 240 239 242 242 240 235 236 233 232 230 231 233 237 237 237 238 240 240 239 240 242 244 245 247 248 250 252 254 256 258 260 265 267 268
267 264 258 252 249 247 246 246 241 241 237 239 241 241 241 239 237 235 234 233 230 231 233 234 236 238 238 243 241 240 242 243 243 244 246 249 252 255 256 258 261 263 265 267
271 264 259 254 246 241 240 244 245 244 237 238 242 242 242 242 239 236 236 233 233 232 231 233 235 235 237 239 241 242 241 245 245 246 248 249 251 254 256 258 260 263 265 267
272 268 266 263 256 252 250 248 250 249 247 238 240 242 243 242 243 240 239 237 233 234 233 234 234 236 235 236 240 242 241 243 246 247 249 251 252 253 256 260 262 262 264 267
282 278 276 271 267 258 259 256 253 251 249 246 243 242 243 244 243 242 240 239 238 235 234 234 236 237 237 235 235 243 244 242 245 247 246 249 252 255 258 259 259 262 264 266
299 281 276 274 268 266 264 262 263 259 253 247 245 244 240 242 242 242 240 239 237 236 235 236 237 238 240 240 238 236 239 244 245 247 251 253 253 255 256 260 265 266 268 270
313 309 305 302 295 282 275 266 259 259 258 249 244 244 241 239 242 240 240 239 237 236 233 233 236 240 242 242 240 239 241 240 242 247 248 250 252 253 259 265 269 273 273 275
345 334 322 318 312 301 291 274 266 259 256 254 243 241 243 241 242 241 239 240 239 234 233 234 234 237 240 243 244 243 241 240 241 242 245 248 253 257 261 266 269 270 270 273
Height
10668 10681 10690 10694 10703 10711 10720 10733 10740 10738 10737 10749 10759 10770 10768 10777 10805 10816 10820 10840 10847 10856 10860 10866 10872 10871 10885 10889 10894 10902 10903 10904 10905 10908 10911 10915 10918 10919 10921 10922 10925 10926 10926 10927
10659 10669 10671 10677 10687 10695 10705 10714 10720 10717 10717 10733 10740 10753 10754 10772 10793 10805 10804 10821 10837 10839 10846 10853 10860 10858 10865 10872 10880 10883 10884 10889 10893 10895 10899 10902 10905 10908 10909 10912 10915 10913 10915 10915
10646 10650 10651 10660 10671 10679 10685 10692 10697 10699 10694 10718 10723 10740 10741 10760 10774 10789 10793 10808 10812 10826 10834 10840 10847 10848 10850 10860 10863 10863 10872 10877 10880 10884 10884 10887 10891 10895 10897 10900 10900 10900 10902 10903
10632 10635 10639 10646 10653 10657 10666 10667 10672 10675 10679 10700 10701 10727 10733 10753 10761 10771 10784 10790 10800 10806 10812 10820 10829 10835 10844 10846 10846 10847 10858 10863 10868 10872 10872 10873 10877 10881 10885 10886 10887 10888 10890 10892
10614 10611 10621 10629 10632 10635 10650 10642 10651 10656 10667 10672 10694 10712 10723 10726 10740 10754 10772 10772 10777 10785 10789 10799 10810 10819 10825 10822 10828 10830 10841 10850 10856 10859 10862 10861 10864 10868 10871 10872 10874 10876 10878 10879
10596 10601 10600 10603 10609 10618 10621 10625 10632 10639 10645 10663 10678 10688 10705 10710 10720 10730 10741 10750 10756 10761 10766 10779 10788 10794 10803 10807 10819 10822 10831 10837 10842 10846 10851 10854 10852 10857 10860 10861 10864 10866 10867 10867
10586 10581 10580 10588 10591 10595 10599 10607 10614 10620 10627 10663 10650 10653 10698 10690 10694 10701 10710 10720 10731 10736 10746 10760 10768 10778 10783 10798 10802 10806 10813 10820 10822 10834 10839 10843 10842 10845 10848 10849 10851 10855 10857 10857
10572 10568 10563 10570 10574 10577 10579 10583 10591 10595 10613 10639 10620 10644 10675 10670 10662 10678 10688 10698 10712 10723 10732 10742 10755 10759 10769 10778 10784 10788 10796 10803 10810 10817 10822 10828 10827 10830 10833 10835 10838 10840 10843 10844
10554 10551 10545 10550 10554 10556 10558 10562 10570 10578 10592 10600 10607 10636 10645 10649 10653 10661 10667 10678 10689 10702 10714 10726 10736 10747 10753 10762 10770 10772 10773 10779 10790 10796 10803 10809 10811 10810 10817 10822 10822 10824 10826 10827
10533 10533 10527 10525 10533 10534 10536 10541 10547 10559 10569 10578 10591 10609 10617 10622 10632 10639 10645 10649 10663 10681 10695 10707 10716 10728 10740 10744 10750 10747 10757 10766 10769 10775 10784 10788 10791 10794 10800 10804 10805 10807 10809 10810
10499 10507 10508 10503 10506 10515 10515 10517 10523 10533 10543 10557 10572 10579 10590 10601 10609 10617 10624 10631 10640 10658 10673 10686 10696 10709 10721 10726 10727 10730 10741 10746 10751 10759 10762 10766 10773 10778 10785 10786 10787 10791 10791 10790
10465 10473 10480 10476 10479 10485 10491 10495 10501 10505 10517 10529 10544 10551 10570 10581 10588 10594 10602 10611 10623 10631 10647 10659 10673 10685 10697 10708 10716 10720 10720 10725 10732 10738 10741 10747 10757 10762 10766 10765 10768 10773 10772 10774
10434 10438 10448 10453 10454 10457 10463 10473 10479 10483 10491 10499 10514 10529 10547 10560 10571 10576 10580 10590 10600 10610 10620 10630 10644 10658 10671 10684 10694 10703 10703 10703 10711 10717 10717 10720 10733 10740 10743 10743 10748 10753 10754 10758
10408 10410 10416 10424 10427 10432 10438 10443 10450 10458 10468 10476 10491 10504 10515 10531 10543 10551 10558 10570 10582 10590 10603 10610 10620 10633 10645 10658 10670 10679 10684 10687 10693 10698 10696 10704 10716 10719 10722 10724 10726 10730 10736 10739
10382 10384 10390 10398 10400 10408 10413 10417 10418 10426 10437 10447 10468 10473 10484 10500 10511 10525 10538 10548 10558 10569 10581 10593 10603 10612 10624 10632 10644 10654 10665 10671 10674 10676 10680 10686 10690 10698 10701 10700 10703 10711 10717 10723
10360 10361 10366 10374 10378 10382 10388 10390 10389 10396 10404 10426 10436 10449 10454 10469 10486 10501 10516 10526 10533 10546 10562 10572 10581 10594 10604 10613 10621 10630 10641 10651 10651 10657 10661 10665 10669 10675 10674 10675 10680 10688 10698 10704
10340 10339 10345 10354 10355 10360 10371 10359 10362 10368 10378 10396 10408 10427 10426 10446 10463 10475 10491 10505 10510 10522 10540 10550 10561 10570 10584 10594 10603 10609 10617 10627 10633 10634 10640 10645 10647 10646 10648 10656 10663 10668 10673 10683
10321 10323 10328 10331 10333 10340 10341 10341 10333 10338 10351 10366 10387 10398 10405 10415 10433 10449 10466 10478 10491 10499 10510 10527 10540 10550 10564 10578 10587 10593 10597 10600 10607 10614 10620 10624 10625 10630 10635 10641 10645 10646 10660 10666
10301 10303 10309 10311 10307 10318 10321 10318 10314 10314 10342 10358 10359 10364 10381 10395 10402 10428 10441 10456 10470 10478 10488 10505 10519 10529 10541 10552 10565 10573 10579 10584 10590 10595 10601 10605 10609 10613 10617 10625 10625 10640 10644 10644
10284 10287 10292 10291 10297 10306 10297 10293 10289 10296 10338 10316 10316 10332 10346 10362 10383 10415 10410 10422 10441 10453 10464 10473 10490 10505 10523 10524 10540 10552 10557 10564 10572 10578 10583 10588 10593 10596 10601 10606 10614 10620 10622 10625
10272 10270 10270 10272 10278 10280 10273 10260 10273 10283 10301 10303 10297 10310 10323 10337 10360 10369 10380 10402 10416 10430 10443 10454 10465 10479 10493 10504 10518 10526 10538 10542 10551 10561 10565 10570 10576 10579 10584 10586 10597 10601 10605 10609
10262 10259 10260 10259 10262 10261 10260 10261 10263 10268 10275 10284 10278 10283 10299 10314 10330 10346 10357 10373 10391 10405 10422 10431 10443 10454 10468 10485 10497 10503 10519 10527 10530 10536 10548 10553 10558 10562 10565 10575 10580 10583 10587 10590
10253 10252 10249 10248 10250 10245 10243 10247 10250 10251 10256 10260 10264 10269 10281 10294 10303 10318 10335 10348 10365 10386 10398 10409 10420 10429 10441 10463 10476 10485 10495 10500 10510 10518 10525 10527 10540 10541 10548 10550 10557 10564 10567 10570
10244 10244 10241 10239 10240 10236 10237 10236 10235 10236 10238 10242 10246 10250 10262 10268 10276 10292 10307 10321 10338 10359 10380 10390 10398 10405 10416 10434 10451 10465 10472 10483 10488 10494 10499 10510 10522 10524 10515 10526 10539 10544 10546 10549
10240 10237 10234 10231 10229 10227 10227 10226 10225 10224 10223 10226 10231 10235 10243 10249 10257 10269 10282 10294 10313 10331 10348 10362 10375 10386 10393 10406 10425 10438 10449 10460 10466 10475 10482 10487 10495 10499 10502 10511 10519 10522 10523 10525
10238 10235 10230 10226 10222 10219 10217 10216 10214 10214 10213 10214 10218 10222 10227 10235 10238 10249 10262 10272 10286 10302 10320 10341 10353 10365 10375 10383 10396 10411 10428 10440 10448 10455 10460 10470 10475 10484 10491 10493 10500 10504 10504 10507